Time,TemperatureF,DewpointF,PressureIn,WindDirection,WindDirectionDegrees,WindSpeedMPH,WindSpeedGustMPH,Humidity,HourlyPrecipIn,Conditions,Clouds,dailyrainin,SoftwareType,DateUTC
2013-02-11 00:22:00,33.0,-99.9,-100.00,East,90,4.0,11.0,-999,-99.99,,,-99.99,,2013-02-11 05:22:00,
2013-02-11 00:32:00,33.0,-99.9,-100.00,East,90,3.0,8.0,-999,-99.99,,,-99.99,,2013-02-11 05:32:00,
2013-02-11 00:42:00,33.0,-99.9,-100.00,East,90,3.0,8.0,-999,-99.99,,,-99.99,,2013-02-11 05:42:00,
2013-02-11 00:53:00,33.0,-99.9,-100.00,NNE,30,2.0,5.0,-999,-99.99,,,-99.99,,2013-02-11 05:53:00,
2013-02-11 01:02:00,33.0,-99.9,-100.00,East,85,2.0,6.0,-999,-99.99,,,-99.99,,2013-02-11 06:02:00,
2013-02-11 01:12:00,33.0,-99.9,-100.00,East,85,2.0,6.0,-999,-99.99,,,-99.99,,2013-02-11 06:12:00,
2013-02-11 01:22:00,34.0,-99.9,-100.00,ESE,105,4.0,8.0,-999,-99.99,,,-99.99,,2013-02-11 06:22:00,
2013-02-11 01:32:00,35.0,-99.9,-100.00,East,85,4.0,8.0,-999,-99.99,,,-99.99,,2013-02-11 06:32:00,
2013-02-11 01:42:00,35.0,-99.9,-100.00,East,85,4.0,8.0,-999,-99.99,,,-99.99,,2013-02-11 06:42:00,
2013-02-11 01:52:00,35.0,-99.9,-100.00,East,80,4.0,8.0,-999,-99.99,,,-99.99,,2013-02-11 06:52:00,
2013-02-11 02:22:00,36.0,-99.9,-100.00,ESE,115,4.0,9.0,-999,-99.99,,,-99.99,,2013-02-11 07:22:00,
2013-02-11 02:32:00,36.0,-99.9,-100.00,SSE,160,8.0,11.0,-999,-99.99,,,-99.99,,2013-02-11 07:32:00,
2013-02-11 02:42:00,36.0,-99.9,-100.00,SSE,160,8.0,11.0,-999,-99.99,,,-99.99,,2013-02-11 07:42:00,
2013-02-11 02:52:00,37.0,-99.9,-100.00,South,180,6.0,10.0,-999,-99.99,,,-99.99,,2013-02-11 07:52:00,
2013-02-11 03:01:00,38.0,-99.9,-100.00,South,185,7.0,13.0,-999,-99.99,,,-99.99,,2013-02-11 08:01:00,
2013-02-11 03:11:00,38.0,-99.9,-100.00,South,185,7.0,13.0,-999,-99.99,,,-99.99,,2013-02-11 08:11:00,
2013-02-11 03:22:00,37.0,-99.9,-100.00,South,175,8.0,11.0,-999,-99.99,,,-99.99,,2013-02-11 08:22:00,
2013-02-11 03:32:00,37.0,-99.9,-100.00,South,185,7.0,11.0,-999,-99.99,,,-99.99,,2013-02-11 08:32:00,
2013-02-11 03:42:00,37.0,-99.9,-100.00,South,185,7.0,11.0,-999,-99.99,,,-99.99,,2013-02-11 08:42:00,
2013-02-11 03:52:00,37.0,-99.9,-100.00,South,190,8.0,15.0,-999,-99.99,,,-99.99,,2013-02-11 08:52:00,
2013-02-11 04:02:00,37.0,-99.9,-100.00,South,175,8.0,16.0,-999,-99.99,,,-99.99,,2013-02-11 09:02:00,
2013-02-11 04:12:00,37.0,-99.9,-100.00,South,175,8.0,16.0,-999,-99.99,,,-99.99,,2013-02-11 09:12:00,
2013-02-11 04:22:00,37.0,-99.9,-100.00,South,175,8.0,15.0,-999,-99.99,,,-99.99,,2013-02-11 09:22:00,
2013-02-11 04:32:00,37.0,-99.9,-100.00,South,170,10.0,15.0,-999,-99.99,,,-99.99,,2013-02-11 09:32:00,
2013-02-11 04:42:00,37.0,-99.9,-100.00,South,170,10.0,15.0,-999,-99.99,,,-99.99,,2013-02-11 09:42:00,
2013-02-11 04:52:00,37.0,-99.9,-100.00,South,180,9.0,18.0,-999,-99.99,,,-99.99,,2013-02-11 09:52:00,
2013-02-11 05:02:00,37.0,-99.9,-100.00,South,175,10.0,18.0,-999,-99.99,,,-99.99,,2013-02-11 10:02:00,
2013-02-11 05:11:00,37.0,-99.9,-100.00,South,175,10.0,18.0,-999,-99.99,,,-99.99,,2013-02-11 10:11:00,
2013-02-11 05:22:00,36.0,-99.9,-100.00,South,190,9.0,18.0,-999,-99.99,,,-99.99,,2013-02-11 10:22:00,
2013-02-11 05:32:00,36.0,-99.9,-100.00,SSW,200,11.0,17.0,-999,-99.99,,,-99.99,,2013-02-11 10:32:00,
2013-02-11 05:42:00,36.0,-99.9,-100.00,SSW,200,11.0,17.0,-999,-99.99,,,-99.99,,2013-02-11 10:42:00,
2013-02-11 05:52:00,36.0,-99.9,-100.00,SSW,200,10.0,19.0,-999,-99.99,,,-99.99,,2013-02-11 10:52:00,
2013-02-11 06:02:00,35.0,-99.9,-100.00,SSW,200,9.0,14.0,-999,-99.99,,,-99.99,,2013-02-11 11:02:00,
2013-02-11 06:11:00,35.0,-99.9,-100.00,SSW,200,9.0,14.0,-999,-99.99,,,-99.99,,2013-02-11 11:11:00,
2013-02-11 06:22:00,35.0,-99.9,-100.00,South,190,9.0,21.0,-999,-99.99,,,-99.99,,2013-02-11 11:22:00,
2013-02-11 06:32:00,35.0,-99.9,-100.00,South,190,6.0,10.0,-999,-99.99,,,-99.99,,2013-02-11 11:32:00,
2013-02-11 06:42:00,35.0,-99.9,-100.00,South,190,6.0,10.0,-999,-99.99,,,-99.99,,2013-02-11 11:42:00,
2013-02-11 06:52:00,35.0,-99.9,-100.00,South,185,7.0,12.0,-999,-99.99,,,-99.99,,2013-02-11 11:52:00,
2013-02-11 07:03:00,34.0,-99.9,-100.00,SSW,195,6.0,13.0,-999,-99.99,,,-99.99,,2013-02-11 12:03:00,
2013-02-11 07:12:00,34.0,-99.9,-100.00,SSW,195,6.0,13.0,-999,-99.99,,,-99.99,,2013-02-11 12:12:00,
2013-02-11 07:22:00,34.0,-99.9,-100.00,SSW,195,8.0,16.0,-999,-99.99,,,-99.99,,2013-02-11 12:22:00,
2013-02-11 07:32:00,34.0,-99.9,-100.00,South,190,9.0,15.0,-999,-99.99,,,-99.99,,2013-02-11 12:32:00,
2013-02-11 07:43:00,34.0,-99.9,-100.00,South,190,9.0,15.0,-999,-99.99,,,-99.99,,2013-02-11 12:43:00,
2013-02-11 07:53:00,33.0,-99.9,-100.00,South,180,6.0,14.0,-999,-99.99,,,-99.99,,2013-02-11 12:53:00,
2013-02-11 08:02:00,33.0,-99.9,-100.00,SSW,195,8.0,12.0,-999,-99.99,,,-99.99,,2013-02-11 13:02:00,
2013-02-11 08:12:00,33.0,-99.9,-100.00,SSW,195,8.0,12.0,-999,-99.99,,,-99.99,,2013-02-11 13:12:00,
2013-02-11 08:22:00,33.0,-99.9,-100.00,South,180,8.0,11.0,-999,-99.99,,,-99.99,,2013-02-11 13:22:00,
2013-02-11 08:33:00,33.0,-99.9,-100.00,South,175,5.0,9.0,-999,-99.99,,,-99.99,,2013-02-11 13:33:00,
2013-02-11 08:42:00,33.0,-99.9,-100.00,South,175,5.0,9.0,-999,-99.99,,,-99.99,,2013-02-11 13:42:00,
2013-02-11 08:52:00,33.0,-99.9,-100.00,South,185,6.0,11.0,-999,-99.99,,,-99.99,,2013-02-11 13:52:00,
2013-02-11 09:02:00,33.0,-99.9,-100.00,South,185,6.0,11.0,-999,-99.99,,,-99.99,,2013-02-11 14:02:00,
2013-02-11 09:22:00,33.0,-99.9,-100.00,SSW,195,5.0,8.0,-999,-99.99,,,-99.99,,2013-02-11 14:22:00,
2013-02-11 09:33:00,33.0,-99.9,-100.00,South,190,6.0,9.0,-999,-99.99,,,-99.99,,2013-02-11 14:33:00,
2013-02-11 09:42:00,33.0,-99.9,-100.00,South,190,6.0,9.0,-999,-99.99,,,-99.99,,2013-02-11 14:42:00,
2013-02-11 09:53:00,33.0,-99.9,-100.00,SSW,200,5.0,11.0,-999,-99.99,,,-99.99,,2013-02-11 14:53:00,
2013-02-11 10:02:00,34.0,-99.9,-100.00,North,-999,-999.0,-999.0,-999,-99.99,,,-99.99,,2013-02-11 15:02:00,
2013-02-11 10:22:00,34.0,-99.9,-100.00,SW,220,8.0,14.0,-999,-99.99,,,-99.99,,2013-02-11 15:22:00,
2013-02-11 10:32:00,34.0,-99.9,-100.00,SW,215,9.0,12.0,-999,-99.99,,,-99.99,,2013-02-11 15:32:00,
2013-02-11 10:43:00,34.0,-99.9,-100.00,SW,215,9.0,12.0,-999,-99.99,,,-99.99,,2013-02-11 15:43:00,
2013-02-11 10:52:00,35.0,-99.9,-100.00,SW,220,8.0,14.0,-999,-99.99,,,-99.99,,2013-02-11 15:52:00,
2013-02-11 11:02:00,35.0,-99.9,-100.00,SW,230,6.0,14.0,-999,-99.99,,,-99.99,,2013-02-11 16:02:00,
2013-02-11 11:12:00,35.0,-99.9,-100.00,SW,230,6.0,14.0,-999,-99.99,,,-99.99,,2013-02-11 16:12:00,
2013-02-11 11:22:00,35.0,-99.9,-100.00,SW,230,9.0,16.0,-999,-99.99,,,-99.99,,2013-02-11 16:22:00,
2013-02-11 11:32:00,35.0,-99.9,-100.00,WSW,240,9.0,15.0,-999,-99.99,,,-99.99,,2013-02-11 16:32:00,
2013-02-11 11:43:00,35.0,-99.9,-100.00,WSW,240,9.0,15.0,-999,-99.99,,,-99.99,,2013-02-11 16:43:00,
2013-02-11 11:53:00,35.0,-99.9,-100.00,SW,230,11.0,15.0,-999,-99.99,,,-99.99,,2013-02-11 16:53:00,
2013-02-11 12:02:00,36.0,-99.9,-100.00,WSW,240,9.0,14.0,-999,-99.99,,,-99.99,,2013-02-11 17:02:00,
2013-02-11 12:12:00,36.0,-99.9,-100.00,WSW,240,9.0,14.0,-999,-99.99,,,-99.99,,2013-02-11 17:12:00,
2013-02-11 12:22:00,35.0,-99.9,-100.00,SW,235,10.0,18.0,-999,-99.99,,,-99.99,,2013-02-11 17:22:00,
2013-02-11 12:33:00,36.0,-99.9,-100.00,West,265,9.0,19.0,-999,-99.99,,,-99.99,,2013-02-11 17:33:00,
2013-02-11 12:42:00,36.0,-99.9,-100.00,West,265,9.0,19.0,-999,-99.99,,,-99.99,,2013-02-11 17:42:00,
2013-02-11 12:53:00,35.0,-99.9,-100.00,WSW,240,10.0,15.0,-999,-99.99,,,-99.99,,2013-02-11 17:53:00,
2013-02-11 13:02:00,36.0,-99.9,-100.00,West,260,9.0,16.0,-999,-99.99,,,-99.99,,2013-02-11 18:02:00,
2013-02-11 13:12:00,36.0,-99.9,-100.00,West,260,9.0,16.0,-999,-99.99,,,-99.99,,2013-02-11 18:12:00,
2013-02-11 13:22:00,36.0,-99.9,-100.00,WNW,295,11.0,20.0,-999,-99.99,,,-99.99,,2013-02-11 18:22:00,
2013-02-11 13:32:00,36.0,-99.9,-100.00,WNW,290,16.0,21.0,-999,-99.99,,,-99.99,,2013-02-11 18:32:00,
2013-02-11 13:42:00,36.0,-99.9,-100.00,WNW,290,16.0,21.0,-999,-99.99,,,-99.99,,2013-02-11 18:42:00,
2013-02-11 13:54:00,36.0,-99.9,-100.00,WNW,295,15.0,24.0,-999,-99.99,,,-99.99,,2013-02-11 18:54:00,
2013-02-11 14:02:00,36.0,-99.9,-100.00,NW,305,10.0,26.0,-999,-99.99,,,-99.99,,2013-02-11 19:02:00,
2013-02-11 14:12:00,36.0,-99.9,-100.00,NW,305,10.0,26.0,-999,-99.99,,,-99.99,,2013-02-11 19:12:00,
2013-02-11 14:22:00,35.0,-99.9,-100.00,NW,315,15.0,28.0,-999,-99.99,,,-99.99,,2013-02-11 19:22:00,
2013-02-11 14:32:00,35.0,-99.9,-100.00,NW,315,15.0,28.0,-999,-99.99,,,-99.99,,2013-02-11 19:32:00,
2013-02-11 15:01:00,35.0,34.0,-100.00,WNW,300,11.0,26.0,96,-99.99,,,-99.99,,2013-02-11 20:01:00,
2013-02-11 15:11:00,35.0,34.0,-100.00,WNW,300,11.0,26.0,96,-99.99,,,-99.99,,2013-02-11 20:11:00,
2013-02-11 15:21:00,35.0,33.0,-100.00,WNW,300,14.0,29.0,94,-99.99,,,-99.99,,2013-02-11 20:21:00,
2013-02-11 15:32:00,34.0,32.0,-100.00,WNW,295,20.0,37.0,92,-99.99,,,-99.99,,2013-02-11 20:32:00,
2013-02-11 15:42:00,34.0,32.0,-100.00,WNW,295,20.0,37.0,92,-99.99,,,-99.99,,2013-02-11 20:42:00,
2013-02-11 15:52:00,34.0,31.0,-100.00,NW,305,19.0,30.0,91,-99.99,,,-99.99,,2013-02-11 20:52:00,
2013-02-11 16:02:00,33.0,31.0,-100.00,WNW,295,20.0,29.0,91,-99.99,,,-99.99,,2013-02-11 21:02:00,
2013-02-11 16:12:00,33.0,31.0,-100.00,WNW,295,20.0,29.0,91,-99.99,,,-99.99,,2013-02-11 21:12:00,
2013-02-11 16:22:00,33.0,29.0,-100.00,WNW,295,18.0,30.0,87,-99.99,,,-99.99,,2013-02-11 21:22:00,
2013-02-11 16:32:00,32.0,28.0,-100.00,WNW,295,24.0,35.0,85,-99.99,,,-99.99,,2013-02-11 21:32:00,
2013-02-11 16:42:00,32.0,28.0,-100.00,WNW,295,24.0,35.0,85,-99.99,,,-99.99,,2013-02-11 21:42:00,
2013-02-11 16:52:00,32.0,28.0,-100.00,WNW,300,19.0,33.0,86,-99.99,,,-99.99,,2013-02-11 21:52:00,
2013-02-11 17:02:00,32.0,28.0,-100.00,WNW,300,16.0,34.0,86,-99.99,,,-99.99,,2013-02-11 22:02:00,
2013-02-11 17:11:00,32.0,28.0,-100.00,WNW,300,16.0,34.0,86,-99.99,,,-99.99,,2013-02-11 22:11:00,
2013-02-11 17:22:00,32.0,28.0,-100.00,NNW,345,14.0,27.0,86,-99.99,,,-99.99,,2013-02-11 22:22:00,
2013-02-11 17:32:00,31.0,27.0,-100.00,WNW,300,19.0,33.0,86,-99.99,,,-99.99,,2013-02-11 22:32:00,
2013-02-11 17:42:00,31.0,27.0,-100.00,WNW,300,19.0,33.0,86,-99.99,,,-99.99,,2013-02-11 22:42:00,
2013-02-11 17:52:00,31.0,27.0,-100.00,WNW,300,25.0,31.0,85,-99.99,,,-99.99,,2013-02-11 22:52:00,
2013-02-11 18:02:00,30.0,25.0,-100.00,WNW,300,21.0,37.0,83,-99.99,,,-99.99,,2013-02-11 23:02:00,
2013-02-11 18:11:00,30.0,25.0,-100.00,WNW,300,21.0,37.0,83,-99.99,,,-99.99,,2013-02-11 23:11:00,
2013-02-11 18:21:00,30.0,26.0,-100.00,NW,305,21.0,32.0,85,-99.99,,,-99.99,,2013-02-11 23:21:00,
2013-02-11 18:32:00,30.0,26.0,-100.00,WNW,300,21.0,35.0,85,-99.99,,,-99.99,,2013-02-11 23:32:00,
2013-02-11 18:42:00,30.0,26.0,-100.00,WNW,300,21.0,35.0,85,-99.99,,,-99.99,,2013-02-11 23:42:00,
2013-02-11 18:52:00,29.0,24.0,-100.00,WNW,300,21.0,32.0,84,-99.99,,,-99.99,,2013-02-11 23:52:00,
2013-02-11 19:02:00,29.0,24.0,-100.00,WNW,300,21.0,32.0,84,-99.99,,,-99.99,,2013-02-12 00:02:00,
2013-02-11 19:11:00,29.0,24.0,-100.00,WNW,300,21.0,32.0,84,-99.99,,,-99.99,,2013-02-12 00:11:00,
2013-02-11 19:22:00,29.0,24.0,-100.00,NW,305,14.0,32.0,84,-99.99,,,-99.99,,2013-02-12 00:22:00,
2013-02-11 19:32:00,28.0,23.0,-100.00,WNW,300,16.0,26.0,82,-99.99,,,-99.99,,2013-02-12 00:32:00,
2013-02-11 19:42:00,28.0,23.0,-100.00,WNW,300,16.0,26.0,82,-99.99,,,-99.99,,2013-02-12 00:42:00,
2013-02-11 19:52:00,28.0,23.0,-100.00,NW,310,11.0,19.0,82,-99.99,,,-99.99,,2013-02-12 00:52:00,
2013-02-11 20:02:00,27.0,22.0,-100.00,NW,305,15.0,25.0,81,-99.99,,,-99.99,,2013-02-12 01:02:00,
2013-02-11 20:11:00,27.0,22.0,-100.00,NW,305,15.0,25.0,81,-99.99,,,-99.99,,2013-02-12 01:11:00,
2013-02-11 20:22:00,27.0,23.0,-100.00,WNW,300,10.0,20.0,83,-99.99,,,-99.99,,2013-02-12 01:22:00,
2013-02-11 20:32:00,27.0,22.0,-100.00,WNW,300,13.0,18.0,82,-99.99,,,-99.99,,2013-02-12 01:32:00,
2013-02-11 20:42:00,27.0,22.0,-100.00,WNW,300,13.0,18.0,82,-99.99,,,-99.99,,2013-02-12 01:42:00,
2013-02-11 20:51:00,27.0,22.0,-100.00,NW,305,13.0,17.0,80,-99.99,,,-99.99,,2013-02-12 01:51:00,
2013-02-11 21:02:00,27.0,22.0,-100.00,NW,305,14.0,20.0,82,-99.99,,,-99.99,,2013-02-12 02:02:00,
2013-02-11 21:12:00,27.0,22.0,-100.00,NW,305,14.0,20.0,82,-99.99,,,-99.99,,2013-02-12 02:12:00,
2013-02-11 21:21:00,27.0,22.0,-100.00,WNW,300,14.0,21.0,82,-99.99,,,-99.99,,2013-02-12 02:21:00,
2013-02-11 21:32:00,27.0,22.0,-100.00,NW,305,9.0,19.0,81,-99.99,,,-99.99,,2013-02-12 02:32:00,
2013-02-11 21:42:00,27.0,22.0,-100.00,NW,305,9.0,19.0,81,-99.99,,,-99.99,,2013-02-12 02:42:00,
2013-02-11 21:52:00,27.0,21.0,-100.00,WNW,295,12.0,19.0,79,-99.99,,,-99.99,,2013-02-12 02:52:00,
2013-02-11 22:02:00,27.0,22.0,-100.00,NW,305,8.0,16.0,82,-99.99,,,-99.99,,2013-02-12 03:02:00,
2013-02-11 22:11:00,27.0,22.0,-100.00,NW,305,8.0,16.0,82,-99.99,,,-99.99,,2013-02-12 03:11:00,
2013-02-11 22:21:00,26.0,22.0,-100.00,WNW,300,13.0,20.0,82,-99.99,,,-99.99,,2013-02-12 03:21:00,
2013-02-11 22:32:00,26.0,21.0,-100.00,NW,305,8.0,19.0,83,-99.99,,,-99.99,,2013-02-12 03:32:00,
2013-02-11 22:42:00,26.0,21.0,-100.00,NW,305,8.0,19.0,83,-99.99,,,-99.99,,2013-02-12 03:42:00,
2013-02-11 22:51:00,26.0,21.0,-100.00,WNW,300,13.0,24.0,81,-99.99,,,-99.99,,2013-02-12 03:51:00,
2013-02-11 23:01:00,26.0,20.0,-100.00,WNW,295,17.0,26.0,80,-99.99,,,-99.99,,2013-02-12 04:01:00,
2013-02-11 23:11:00,26.0,20.0,-100.00,WNW,295,17.0,26.0,80,-99.99,,,-99.99,,2013-02-12 04:11:00,
2013-02-11 23:21:00,25.0,21.0,-100.00,WNW,295,12.0,24.0,82,-99.99,,,-99.99,,2013-02-12 04:21:00,
2013-02-11 23:31:00,25.0,21.0,-100.00,WNW,295,10.0,21.0,84,-99.99,,,-99.99,,2013-02-12 04:31:00,
2013-02-11 23:42:00,25.0,21.0,-100.00,WNW,295,10.0,21.0,84,-99.99,,,-99.99,,2013-02-12 04:42:00,
2013-02-11 23:51:00,25.0,19.0,-100.00,NW,305,16.0,26.0,78,-99.99,,,-99.99,,2013-02-12 04:51:00,